Home   Weather   Fort St. John   Past weeks

Flag for Canada Past Weather in Fort St. John, British Columbia, Canada — Yesterday and Last 2 Weeks

Now
27 °F

Passing clouds.


Feels Like: 17 °F
Forecast: 22 / 42 °F
Wind: 9 mph from Southeast

Location: Fort St John

Current Time: Apr 25, 2017 at 7:40:55 am

Latest Report: Apr 25, 2017 at 7:00 am


Visibility: 60 mi

Pressure: 29.99 "Hg (27.49 "Hg at 689m altitude)

Humidity: 74%

Dew Point: 19 °F

Location of Fort St. JohnLocation

Past Weather in Fort St. John — Graph

°F

Fort St. John Temperature Yesterday

Maximum temperature yesterday: 41 °F (at 6:00 pm)
Minimum temperature yesterday: 28 °F (at 5:00 am)
Average temperature yesterday: 34 °F

High & Low Weather Summary for the Past Weeks

 TemperatureHumidityPressure
High52 °F (Apr 10, 4:00 pm)100% (Apr 13, 10:00 pm)30.45 "Hg (Apr 13, 10:00 pm)
Low16 °F (Apr 18, 6:00 am)27% (Apr 12, 6:00 pm)29.92 "Hg (Apr 24, 3:00 am)
Average32 °F77%30.14 "Hg
* Reported Apr 10 6:00 am — Apr 25 6:00 am, Fort St. John, Weather by CustomWeather, © 2017

Note: Actual official high and low records may vary slightly from our data, if they occured in-between our weather recording intervals... More about our weather records

Advertising

Fort St. John Weather History for the Previous 24 Hours

Scroll right to see more
 ConditionsComfort  
Time TempWeatherWind HumidityBarometerVisibility
6:00 am
Tue, Apr 25
25 °FPassing clouds.7 mph74%30.00 "Hg15 mi
5:00 am27 °FPassing clouds.6 mph69%30.01 "Hg15 mi
4:00 am27 °FPassing clouds.8 mph69%30.01 "Hg15 mi
3:00 am27 °FClear.7 mph69%30.01 "Hg15 mi
2:00 am27 °FClear.9 mph69%30.01 "Hg15 mi
1:00 am28 °FClear.7 mph69%30.01 "Hg15 mi
12:00 am30 °FClear.8 mph64%30.01 "Hg15 mi
11:00 pm
Mon, Apr 24
30 °FClear.7 mph59%30.01 "Hg15 mi
10:00 pm36 °FPassing clouds.5 mph48%30.01 "Hg15 mi
9:00 pm36 °FPassing clouds.3 mph48%30.00 "Hg15 mi
8:00 pm37 °FPassing clouds.5 mph48%29.98 "Hg15 mi
7:00 pm39 °FScattered clouds.No wind42%29.98 "Hg15 mi
6:00 pm41 °FScattered clouds.2 mph39%29.98 "Hg15 mi
5:00 pm39 °FScattered clouds.3 mph42%29.97 "Hg60 mi
4:00 pm39 °FScattered clouds.7 mph45%29.98 "Hg60 mi
3:00 pm37 °FScattered clouds.2 mph45%29.98 "Hg60 mi
2:00 pm37 °FScattered clouds.No wind45%29.98 "Hg60 mi
1:00 pm37 °FScattered clouds.No wind48%29.97 "Hg15 mi
12:00 pm36 °FPartly sunny.5 mph52%29.97 "Hg15 mi
11:00 am34 °FBroken clouds.5 mph60%29.96 "Hg15 mi
10:00 am32 °FBroken clouds.2 mph69%29.95 "Hg15 mi
9:00 am30 °FBroken clouds.5 mph80%29.96 "Hg15 mi
8:00 am30 °FBroken clouds.5 mph86%29.96 "Hg15 mi
7:00 am30 °FMore clouds than sun.5 mph93%29.95 "Hg15 mi
Weather by CustomWeather, © 2017

See weather overviewHow to use our weather pages